Regional Weather Roundup
Issued by NWS

Home | Current Version | Previous Version | Graphics & Text | Print | Product List | Glossary On
Versions: 1 2 3 4 5 6 7 8 9 10 11 12 13 14 15 16 17 18 19 20 21 22 23 24 25 26 27 28 29 30 31 32 33 34 35 36 37 38 39 40 41 42 43 44 45 46 47 48 49 50
000
ASUS43 KOAX 161902
RWRNE

WEATHER ROUNDUP FOR NEBRASKA
NATIONAL WEATHER SERVICE OMAHA NE
200 PM CDT TUE SEP 16 2014

NOTES: SATELLITE DATA IS BEING USED TO AUGMENT CLOUD COVER ABOVE
       12000 FEET.
       "FAIR" INDICATES FEW OR NO CLOUDS BELOW 12,000 FEET WITH NO
       SIGNIFICANT WEATHER AND/OR OBSTRUCTIONS TO VISIBILITY.

  * THESE STATIONS DO NOT REPORT WEATHER SUCH AS RAIN...SNOW OR FOG.

NEZ001>004-019>022-054>056-162000-
NEBRASKA PANHANDLE

CITY           SKY/WX    TMP DP  RH WIND       PRES   REMARKS
SCOTTSBLUFF    MOSUNNY   81  52  36 SW12      30.06F
ALLIANCE       SUNNY     78  50  37 NW10      30.04F
CHADRON        SUNNY     79  51  37 SW8       30.00F
KIMBALL        MOSUNNY   82  40  22 NW10      30.11S
SIDNEY         SUNNY     84  45  25 N13       30.07F
$$

NEZ057>060-069>072-079>082-162000-
SOUTHWEST NEBRASKA

CITY           SKY/WX    TMP DP  RH WIND       PRES   REMARKS
NORTH PLATTE   MOSUNNY   71  56  58 S14       30.03F
IMPERIAL       SUNNY     79  54  41 SW13G18   30.02F
LEXINGTON      CLOUDY    64  56  77 S8        30.07F
MCCOOK         MOSUNNY   73  56  54 S14G23    30.05F
OGALLALA       SUNNY     79  58  48 W7        30.01F
$$

NEZ005>010-023>029-035>040-094-162000-
NORTH CENTRAL NEBRASKA

CITY           SKY/WX    TMP DP  RH WIND       PRES   REMARKS
VALENTINE      SUNNY     75  55  49 W7        29.98F
AINSWORTH      SUNNY     71  55  56 S10G20    30.00F
BROKEN BOW     CLOUDY    66  54  65 S18G25    30.06F
O`NEILL        MOSUNNY   69  56  62 S17       30.03F
ORD            CLOUDY    67  55  65 S14       30.05F
THEDFORD       SUNNY     76  57  51 SW15G22   30.01F
$$

NEZ041-046>049-061>064-073>077-083>087-162000-
SOUTH CENTRAL NEBRASKA

CITY           SKY/WX    TMP DP  RH WIND       PRES   REMARKS
GRAND ISLAND   SUNNY     70  53  54 S15       30.09F
AURORA         SUNNY     69  48  46 S12       30.10F
HASTINGS       SUNNY     69  51  52 S9G21     30.08F
HEBRON         PTSUNNY   70  45  40 S9        30.12F
HOLDREGE       CLOUDY    64  53  68 S17       30.07F
KEARNEY *      CLOUDY    63  52  67 S13       30.09R
YORK           SUNNY     66  50  55 S10       30.11F
$$

NEZ011>018-030>034-042>045-162000-
NORTHEAST NEBRASKA

CITY           SKY/WX    TMP DP  RH WIND       PRES   REMARKS
NORFOLK        SUNNY     67  49  52 S14       30.09F
ALBION         PTSUNNY   67  50  55 S12G17    30.09F
BLAIR          SUNNY     66  48  51 S9        30.12F
COLUMBUS *     SUNNY     66  48  52 S9        30.12F
FREMONT        SUNNY     66  46  48 S7        30.12F
TEKAMAH        SUNNY     67  47  48 S9        30.12F
WAYNE          SUNNY     68  49  51 S14       30.11F
$$

NEZ050>053-065>068-078-088>093-162000-
SOUTHEAST NEBRASKA

CITY           SKY/WX    TMP DP  RH WIND       PRES   REMARKS
LINCOLN        SUNNY     68  46  45 SE9       30.13F
OMAHA EPPLEY   SUNNY     65  47  52 SE9       30.13F
BEATRICE       SUNNY     67  46  47 S6        30.13F
FALLS CITY     SUNNY     69  50  50 MISG      30.14F
NEBRASKA CITY  SUNNY     65  40  39 SE6       30.14F
PLATTSMOUTH    SUNNY     65  45  48 S8        30.13F
$$

NEZ044-045-051>053-067-162000-
OMAHA AREA

CITY           SKY/WX    TMP DP  RH WIND       PRES   REMARKS
OMAHA EPPLEY   SUNNY     65  47  52 SE9       30.13F
BLAIR          SUNNY     66  48  51 S9        30.12F
FREMONT        SUNNY     66  46  48 S7        30.12F
MILLARD        SUNNY     65  48  54 S8        30.12F
OFFUTT AFB     SUNNY     66  54  66 SE10      30.13F
PLATTSMOUTH    SUNNY     65  45  48 S8        30.13F
WAHOO          FAIR      68  44  43 S8        30.12F
$$


USA.gov is the U.S. government's official web portal to all federal, state and local government web resources and services.